This is the latest recevied weather packets stored in our database for station/object JH0KSP-13. If no packets are shown the sender has not sent any weather packets the latest 10 day(s).
| Time | Temp. | Humidity | Pressure | Rain* | Wind** | Luminosity | Snow |
|---|---|---|---|---|---|---|---|
| 1777450808 | 16.11° C | 52% | 1012.6 hPa | 0 mm | - | - | - |
| 1777450256 | 16.11° C | 52% | 1012.7 hPa | 0 mm | - | - | - |
| 1777450209 | 16.11° C | 52% | 1012.7 hPa | 0 mm | - | - | - |
| 1777449608 | 16.11° C | 50% | 1012.8 hPa | 0 mm | - | - | - |
| 1777449056 | 16.11° C | 51% | 1012.7 hPa | 0 mm | - | - | - |
| 1777449008 | 16.11° C | 51% | 1012.7 hPa | 0 mm | - | - | - |
| 1777447856 | 17.22° C | 51% | 1012.8 hPa | 0 mm | - | - | - |
| 1777447810 | 17.22° C | 51% | 1012.8 hPa | 0 mm | - | - | - |
| 1777447209 | 17.22° C | 49% | 1012.8 hPa | 0 mm | - | - | - |
| 1777446657 | 17.22° C | 50% | 1012.9 hPa | 0 mm | - | - | - |
| 1777446608 | 17.22° C | 50% | 1012.9 hPa | 0 mm | - | - | - |
| 1777446009 | 17.22° C | 50% | 1012.8 hPa | 0 mm | - | - | - |
| 1777445456 | 17.22° C | 51% | 1012.7 hPa | 0 mm | - | - | - |
| 1777445409 | 17.22° C | 51% | 1012.7 hPa | 0 mm | - | - | - |
| 1777444809 | 17.22° C | 50% | 1012.8 hPa | 0 mm | - | - | - |
| 1777444255 | 17.22° C | 50% | 1012.7 hPa | 0 mm | - | - | - |
| 1777443609 | 17.22° C | 50% | 1012.4 hPa | 0 mm | - | - | - |
| 1777443056 | 17.22° C | 50% | 1012.4 hPa | 0 mm | - | - | - |
| 1777441857 | 17.22° C | 49% | 1012.4 hPa | 0 mm | - | - | - |
| 1777440657 | 17.22° C | 48% | 1012.6 hPa | 0 mm | - | - | - |
| 1777439456 | 17.22° C | 47% | 1012.8 hPa | 0 mm | - | - | - |
| 1777438257 | 17.78° C | 44% | 1012.7 hPa | 0 mm | - | - | - |
| 1777437057 | 17.78° C | 40% | 1012.6 hPa | 0 mm | - | - | - |
| 1777437009 | 17.78° C | 40% | 1012.6 hPa | 0 mm | - | - | - |
| 1777436408 | 17.78° C | 40% | 1012.7 hPa | 0 mm | - | - | - |
* Rain latest hour (hover to see other rain measurements)
** Current wind speed in m/s (hover to see current wind gust speed)